#timestamp,LO_Frequency,Hit,StdDev 
1519761615.4,286047001.7,P
1519761635.2,286047002.2,N
1519761655.1,286047001.6,N
1519761656.0,286047001.6,N
1519761675.8,286047003.4,Y
1519761695.6,286047000.2,P
1519761715.5,286047000.4,N
1519761735.3,286047000.9,N
1519761755.2,286046998.2,Y
1519761775.9,286047000.8,P
1519761795.7,286046998.8,P
1519761815.6,286046998.7,N
1519761835.4,286046998.9,N
1519761855.2,286046998.3,N
1519761875.1,286047001.2,N
1519761876.0,286047001.2,N
1519761895.8,286047000.9,N
1519761915.7,286047000.1,N
1519761935.5,286047000.5,N
1519761955.3,286047000.6,N
1519761975.2,286046999.9,N
1519761995.0,286047004.1,Y
1519761995.9,286047004.1,P
1519762015.8,286047004.0,N
1519762035.6,286047000.3,N
1519762055.4,286047002.2,N
1519762075.3,286046999.0,N
1519762095.1,286046999.4,N
1519762115.8,286047000.7,N
1519762135.7,286046998.9,N
1519762155.5,286046998.2,N
1519762175.4,286046999.2,N
1519762195.2,286046999.5,N
1519762215.0,286046996.6,N
1519762215.9,286046996.6,N
1519762235.8,286046998.4,N
1519762255.6,286046998.3,N
1519762275.4,286046999.6,N
1519762295.3,286046998.4,N
1519762315.1,286046997.4,N
1519762335.9,286046999.5,N
1519762355.7,286046997.4,N
1519762375.5,286046997.1,N
1519762395.4,286046998.7,N
1519762415.2,286046998.7,N
1519762435.0,286046997.3,N
1519762435.9,286046997.3,N
1519762455.8,286046999.2,N
1519762475.6,286046996.5,N
1519762495.5,286047000.9,N
1519762515.3,286047003.8,N
1519762535.1,286047003.0,N
1519762555.9,286047003.6,N
1519762575.7,286047001.8,N
1519762595.6,286047003.0,N
1519762615.4,286047003.4,N
1519762635.2,286047001.8,N
1519762655.1,286047001.5,N
1519762656.0,286047001.5,N
1519762675.8,286047002.8,N
1519762695.6,286047000.1,N
1519762715.5,286046999.9,N
1519762735.3,286047001.7,N
1519762755.2,286047004.2,N
1519762775.9,286047003.0,N
1519762795.7,286047004.9,N
1519762815.6,286047007.2,N
1519762835.4,286047005.6,N
1519762855.2,286047003.7,N
1519762875.1,286047001.8,N
1519762876.0,286047001.8,N
1519762895.8,286047003.8,N
1519762915.7,286047003.6,N
1519762935.5,286047004.4,N
1519762955.3,286047004.3,N
1519762975.2,286047001.3,N
1519762995.0,286047004.1,N
1519762995.9,286047004.1,N
1519763015.8,286047003.9,N
1519763035.6,286047003.9,N
1519763055.4,286047004.2,N
1519763075.3,286047005.9,Y
1519763095.1,286046998.3,P
1519763115.8,286047000.0,N
1519763135.7,286047000.1,N
1519763155.5,286047002.8,N
1519763175.4,286047000.0,N
1519763195.2,286047001.5,N
1519763215.0,286047001.8,N
1519763215.9,286047001.8,N
1519763235.8,286047001.3,N
1519763255.6,286047004.1,N
1519763275.4,286047001.7,N
1519763295.3,286047004.1,N
1519763315.1,286047004.0,N
1519763335.9,286047001.1,N
1519763355.7,286047001.2,N
1519763375.5,286046999.1,N
1519763395.4,286046997.2,N
1519763415.2,286046999.5,N
1519763435.0,286046996.8,N
1519763436.0,286046996.8,N
1519763455.8,286047000.6,N
1519763475.6,286046998.1,N
1519763495.5,286046996.5,N
1519763515.3,286046999.9,N
1519763535.1,286047000.8,N
1519763555.9,286046998.1,N
1519763575.7,286047002.2,N
1519763595.5,286047000.6,N
1519763615.4,286046998.7,N
1519763635.2,286046997.5,N
1519763655.1,286046997.9,N
1519763656.0,286046997.9,N
1519763675.8,286046999.2,N
1519763695.6,286046996.7,N
1519763715.5,286046997.0,N
1519763735.3,286046996.9,N
1519763755.2,286046997.4,N
1519763775.9,286046997.2,N
1519763795.7,286046996.8,N
1519763815.6,286047000.9,N
1519763835.4,286046998.1,N
1519763855.2,286046996.5,N
1519763875.1,286046998.5,N
1519763876.0,286046998.5,N
1519763895.8,286046995.3,N
1519763915.7,286046996.6,N
1519763935.5,286047000.8,N
1519763955.3,286046996.5,N
1519763975.2,286046999.1,N
1519763995.0,286046999.8,N
1519763995.9,286046999.8,N
1519764015.8,286046999.8,N
1519764035.6,286047000.2,N
1519764055.4,286047000.1,N
1519764075.3,286046999.7,N
1519764095.1,286047002.1,N
1519764115.8,286047001.7,N
1519764135.7,286047002.7,N
1519764155.5,286047001.8,N
1519764175.4,286047002.0,N
1519764195.2,286047002.6,N
1519764215.0,286047004.1,N
1519764215.9,286047004.1,N
1519764235.8,286047001.7,N
1519764255.6,286047005.9,N
1519764275.4,286047006.0,N
1519764295.3,286047004.2,N
1519764315.1,286047002.7,N
1519764335.9,286047002.7,N
1519764355.7,286047000.7,N
1519764375.5,286046999.9,N
1519764395.4,286046999.7,N
1519764415.2,286047002.2,N
1519764435.0,286047002.0,N
1519764436.0,286047002.0,N
1519764455.8,286046999.3,N
1519764475.6,286046996.9,N
1519764495.5,286046999.1,N
1519764515.3,286047000.9,N
1519764535.1,286046999.0,N
1519764555.9,286046998.9,N
1519764575.7,286046998.4,N
1519764595.6,286046996.5,N
1519764615.4,286046998.5,N
1519764635.2,286047000.3,N
1519764655.1,286047000.3,N
1519764656.0,286047000.3,N
1519764675.8,286046999.9,N
1519764695.6,286047000.2,N
1519764715.5,286046998.1,N
1519764735.3,286047002.7,N
1519764755.2,286047003.2,N
1519764775.9,286047005.9,N
1519764795.7,286047003.9,N
1519764815.6,286047000.7,N
1519764835.4,286047003.8,N
1519764855.2,286047002.7,N
1519764875.1,286047000.4,N
1519764876.0,286047000.4,N
1519764895.8,286047000.6,N
1519764915.7,286046999.3,N
1519764935.5,286046997.9,N
1519764955.3,286046997.3,N
1519764975.2,286046997.9,N
1519764995.0,286046996.6,N
1519764995.9,286046996.6,N
1519765015.7,286046994.9,N
1519765035.6,286046997.4,N
1519765055.4,286046997.6,N
1519765075.3,286046998.1,N
1519765095.1,286047001.0,N
1519765096.0,286047001.0,N
1519765115.8,286046995.0,N
1519765135.7,286046997.7,N
1519765155.5,286046996.5,N
1519765175.4,286046996.0,N
1519765195.2,286046993.5,N
